Mora, MN

1:51 PM CDT on July 20, 2017 (GMT -0500)
Mora Municipal

Weather History for KJMR - December, 2012

Change the Weather History Date:

Monday, December 3, 2012

  Actual Average Record
Temperature  
Mean Temperature 42 °F -  
Max Temperature 50 °F 26 °F 60 °F (1998)
Min Temperature 35 °F 6 °F -32 °F (1985)
Degree Days  
Heating Degree Days 22    
Moisture  
Dew Point 38 °F    
Average Humidity 84    
Maximum Humidity 100    
Minimum Humidity 70    
Precipitation  
Precipitation 0.00 in - - ()
Sea Level Pressure  
Sea Level Pressure 29.67 in    
Wind  
Wind Speed 9 mph (SW)    
Max Wind Speed 14 mph    
Max Gust Speed 24 mph    
Visibility 6 miles    
Events Rain    
Averages and records for this station are not official NWS values.
T = Trace of Precipitation, MM = Missing Value Source: NWS Daily Summary

Daily Weather History Graph

Daily Weather History Graph

Search for Another Location

Airport or City:

Trip Planner

Search our weather history database for the weather conditions in past years. The results will help you decide how hot, cold, wet, or windy it might be!

Date:

Astronomy

Dec. 03, 2012 Rise Set
Actual Time 7:37 AM CST 4:29 PM CST
Civil Twilight 7:03 AM CST 5:03 PM CST
Nautical Twilight 6:25 AM CST 5:40 PM CST
Astronomical Twilight 5:49 AM CST 6:16 PM CST
Moon 9:25 PM CST (12/3) 10:52 AM CST (12/3)
Length of Visible Light 9h 59m
Length of Day
8h 52m
Waning Gibbous, 78% of the Moon is Illuminated
Dec 3
Waning Gibbous
Dec 6
Last Quarter
Dec 13
New
Dec 19
First Quarter
Dec 28
Full

Hourly Weather History & Observations

Time (CST) Temp. Windchill Dew Point Humidity Pressure Visibility Wind Dir Wind Speed Gust Speed Precip Events Conditions
12:02 AM 35.6 °F 28.6 °F 33.8 °F 93% 29.79 in 3.0 mi SSE 9.2 mph - N/A   Mist
12:22 AM 37.4 °F 32.1 °F 35.6 °F 93% 29.77 in 4.0 mi SSE 6.9 mph - N/A   Scattered Clouds
12:42 AM 37.4 °F 31.4 °F 35.6 °F 93% 29.76 in 4.0 mi SSE 8.1 mph - N/A   Mostly Cloudy
1:01 AM 37.4 °F 31.4 °F 35.6 °F 93% 29.75 in 4.0 mi SSE 8.1 mph - N/A   Mostly Cloudy
1:22 AM 37.4 °F 32.1 °F 35.6 °F 93% 29.74 in 4.0 mi SSE 6.9 mph - N/A   Overcast
1:41 AM 37.4 °F 32.1 °F 35.6 °F 93% 29.74 in 4.0 mi SSE 6.9 mph - N/A   Overcast
2:02 AM 37.4 °F 32.1 °F 35.6 °F 93% 29.73 in 4.0 mi SSE 6.9 mph - N/A   Mostly Cloudy
2:22 AM 37.4 °F 32.8 °F 35.6 °F 93% 29.73 in 4.0 mi SSE 5.8 mph - N/A   Scattered Clouds
2:42 AM 37.4 °F 32.1 °F 35.6 °F 93% 29.72 in 5.0 mi SSE 6.9 mph - N/A   Clear
3:01 AM 37.4 °F 31.4 °F 35.6 °F 93% 29.71 in 4.0 mi SSE 8.1 mph - N/A   Scattered Clouds
3:22 AM 37.4 °F 30.8 °F 35.6 °F 93% 29.70 in 4.0 mi SSE 9.2 mph - N/A   Mostly Cloudy
3:42 AM 39.2 °F 33.6 °F 35.6 °F 87% 29.69 in 4.0 mi SSE 8.1 mph - N/A   Overcast
4:02 AM 39.2 °F 35.9 °F 35.6 °F 87% 29.69 in 4.0 mi SSE 4.6 mph - N/A   Overcast
4:22 AM 39.2 °F 34.2 °F 37.4 °F 93% 29.68 in 4.0 mi SE 6.9 mph - N/A   Overcast
4:42 AM 41.0 °F 35.8 °F 37.4 °F 87% 29.67 in 4.0 mi SSE 8.1 mph - N/A   Overcast
5:02 AM 41.0 °F 37.1 °F 37.4 °F 87% 29.67 in 4.0 mi SSE 5.8 mph - N/A   Overcast
5:22 AM 42.8 °F 38.0 °F 41.0 °F 93% 29.65 in 4.0 mi SSE 8.1 mph - N/A   Overcast
5:42 AM 42.8 °F 38.0 °F 41.0 °F 93% 29.64 in 4.0 mi SSE 8.1 mph - N/A   Overcast
6:02 AM 42.8 °F 38.6 °F 41.0 °F 93% 29.63 in 2.0 mi SSE 6.9 mph - N/A   Overcast
6:21 AM 42.8 °F 38.6 °F 41.0 °F 93% 29.62 in 1.5 mi SSE 6.9 mph - N/A   Overcast
6:42 AM 42.8 °F 38.0 °F 41.0 °F 93% 29.62 in 1.5 mi SSE 8.1 mph - N/A   Overcast
7:02 AM 44.6 °F 39.7 °F 42.8 °F 93% 29.60 in 1.8 mi South 9.2 mph - N/A   Overcast
7:22 AM 44.6 °F 39.2 °F 42.8 °F 93% 29.58 in 1.5 mi SSE 10.4 mph - N/A   Overcast
7:42 AM 44.6 °F 39.2 °F 44.6 °F 100% 29.58 in 1.5 mi South 10.4 mph - N/A   Overcast
8:01 AM 44.6 °F 40.2 °F 44.6 °F 100% 29.59 in 1.8 mi South 8.1 mph - N/A   Overcast
8:22 AM 44.6 °F 39.2 °F 44.6 °F 100% 29.58 in 1.5 mi South 10.4 mph - N/A   Overcast
8:42 AM 44.6 °F 38.8 °F 44.6 °F 100% 29.57 in 1.8 mi South 11.5 mph 18.4 mph N/A   Overcast
9:02 AM 44.6 °F 38.8 °F 44.6 °F 100% 29.56 in 1.8 mi South 11.5 mph 17.3 mph N/A   Overcast
9:22 AM 46.4 °F 41.1 °F 44.6 °F 93% 29.56 in 1.8 mi South 11.5 mph - N/A   Overcast
9:42 AM 46.4 °F 40.4 °F 44.6 °F 93% 29.55 in 1.8 mi South 13.8 mph 18.4 mph N/A   Overcast
10:02 AM 46.4 °F 41.9 °F 44.6 °F 93% 29.55 in 1.0 mi SSW 9.2 mph - N/A   Overcast
10:22 AM 46.4 °F 41.9 °F 44.6 °F 93% 29.55 in 1.0 mi SSW 9.2 mph - N/A   Overcast
10:42 AM 46.4 °F 42.4 °F 46.4 °F 100% 29.54 in 1.2 mi SSW 8.1 mph - N/A Rain Light Rain
11:02 AM 48.2 °F - 46.4 °F 93% 29.53 in 2.0 mi SSW 9.2 mph - N/A   Light Drizzle
11:22 AM 48.2 °F - 46.4 °F 93% 29.53 in 3.0 mi SW 8.1 mph 16.1 mph N/A   Light Drizzle
11:42 AM 48.2 °F - 46.4 °F 93% 29.53 in 4.0 mi SW 9.2 mph - N/A   Overcast
12:02 PM 50.0 °F - 48.2 °F 94% 29.52 in 5.0 mi SW 10.4 mph - N/A   Overcast
12:22 PM 50.0 °F - 46.4 °F 87% 29.53 in 5.0 mi WSW 10.4 mph 17.3 mph N/A   Overcast
12:42 PM 50.0 °F - 46.4 °F 87% 29.52 in 7.0 mi WSW 9.2 mph - N/A   Mostly Cloudy
1:22 PM 48.2 °F - 42.8 °F 82% 29.55 in 10.0 mi West 11.5 mph 20.7 mph N/A   Overcast
1:42 PM 50.0 °F - 42.8 °F 76% 29.54 in 10.0 mi West 9.2 mph - N/A   Mostly Cloudy
2:02 PM 50.0 °F - 42.8 °F 76% 29.55 in 10.0 mi West 9.2 mph - N/A   Overcast
2:22 PM 50.0 °F - 41.0 °F 71% 29.56 in 10.0 mi WNW 8.1 mph 18.4 mph N/A   Overcast
2:42 PM 50.0 °F - 41.0 °F 71% 29.58 in 10.0 mi West 6.9 mph 11.5 mph N/A   Overcast
3:02 PM 50.0 °F - 41.0 °F 71% 29.59 in 10.0 mi West 9.2 mph - N/A   Overcast
3:22 PM 50.0 °F - 41.0 °F 71% 29.62 in 10.0 mi WNW 13.8 mph 20.7 mph N/A   Overcast
3:42 PM 50.0 °F - 41.0 °F 71% 29.63 in 10.0 mi West 12.7 mph 21.9 mph N/A   Overcast
4:02 PM 46.4 °F 40.4 °F 37.4 °F 71% 29.66 in 10.0 mi West 13.8 mph 24.2 mph N/A   Scattered Clouds
4:22 PM 44.6 °F 38.8 °F 35.6 °F 71% 29.67 in 10.0 mi West 11.5 mph 17.3 mph N/A   Clear
4:42 PM 44.6 °F 40.2 °F 37.4 °F 76% 29.69 in 10.0 mi West 8.1 mph - N/A   Clear
5:02 PM 42.8 °F 38.6 °F 35.6 °F 76% 29.71 in 10.0 mi West 6.9 mph - N/A   Clear
5:22 PM 42.8 °F 38.6 °F 35.6 °F 76% 29.72 in 10.0 mi WSW 6.9 mph - N/A   Clear
5:42 PM 42.8 °F 39.3 °F 35.6 °F 76% 29.73 in 10.0 mi WSW 5.8 mph - N/A   Clear
6:02 PM 41.0 °F 35.8 °F 33.8 °F 76% 29.73 in 10.0 mi West 8.1 mph - N/A   Clear
6:22 PM 39.2 °F 33.0 °F 33.8 °F 81% 29.75 in 10.0 mi West 9.2 mph - N/A   Clear
6:42 PM 41.0 °F 34.7 °F 32.0 °F 70% 29.76 in 10.0 mi West 10.4 mph - N/A   Clear
7:01 PM 39.2 °F 33.6 °F 32.0 °F 75% 29.77 in 10.0 mi West 8.1 mph - N/A   Clear
7:22 PM 37.4 °F 30.8 °F 32.0 °F 81% 29.77 in 10.0 mi West 9.2 mph - N/A   Clear
7:42 PM 39.2 °F 33.6 °F 32.0 °F 75% 29.79 in 10.0 mi WSW 8.1 mph - N/A   Clear
8:02 PM 37.4 °F 30.3 °F 32.0 °F 81% 29.79 in 10.0 mi West 10.4 mph - N/A   Clear
8:22 PM 41.0 °F 36.4 °F 32.0 °F 70% 29.80 in 10.0 mi WSW 6.9 mph - N/A   Clear
8:42 PM 39.2 °F 34.2 °F 32.0 °F 75% 29.80 in 10.0 mi WSW 6.9 mph - N/A   Clear
9:02 PM 39.2 °F 33.0 °F 30.2 °F 70% 29.81 in 10.0 mi WSW 9.2 mph - N/A   Clear
9:22 PM 39.2 °F 32.5 °F 30.2 °F 70% 29.81 in 10.0 mi WSW 10.4 mph 23.0 mph N/A   Clear
9:42 PM 39.2 °F 33.6 °F 30.2 °F 70% 29.82 in 10.0 mi WSW 8.1 mph - N/A   Clear
10:02 PM 39.2 °F 33.0 °F 30.2 °F 70% 29.82 in 10.0 mi WSW 9.2 mph - N/A   Clear
10:21 PM 37.4 °F 31.4 °F 28.4 °F 70% 29.82 in 10.0 mi SW 8.1 mph - N/A   Clear
10:42 PM 37.4 °F 30.3 °F 28.4 °F 70% 29.83 in 10.0 mi WSW 10.4 mph 17.3 mph N/A   Clear
11:02 PM 37.4 °F 29.8 °F 28.4 °F 70% 29.82 in 10.0 mi West 11.5 mph 17.3 mph N/A   Clear
11:22 PM 37.4 °F 30.3 °F 28.4 °F 70% 29.84 in 10.0 mi West 10.4 mph - N/A   Clear
11:42 PM 37.4 °F 30.3 °F 28.4 °F 70% 29.85 in 10.0 mi West 10.4 mph 16.1 mph N/A   Clear